This demonstration page uses our WeatherBlox Daily Observations layout. Learn more.

Left ArrowRight Arrow

31.84235, -102.49876

Hourly Observations for June 25, 2022

Temp ( °F °C ) Dew Point ( °F °C ) Humidity (%) Winds ( mph kmh ) Pressure ( in mb ) Visibility ( mi km ) Precip ( " mm )
12:53 am 00:53 Clear 85 29.4 45 7.2 25 25 S 13 20 29.80 1009 10 16 0.00 0.00
1:53 am 01:53 Clear 85 29.4 47 8.3 27 27 S 16 26 29.80 1009 10 16 0.00 0.00
2:53 am 02:53 Clear 84 28.9 49 9.4 30 30 S 14 22 29.80 1009 10 16 0.00 0.00
3:53 am 03:53 Clear 82 27.8 49 9.4 32 32 SSE 12 19 29.80 1009 10 16 0.00 0.00
4:53 am 04:53 Clear 81 27.2 49 9.4 33 33 S 13 20 29.81 1010 10 16 0.00 0.00
5:53 am 05:53 Clear 79 26.1 49 9.4 35 35 SSE 12 19 29.82 1010 10 16 0.00 0.00
6:53 am 06:53 Sunny 77 25 51 10.6 40 40 S 9 15 29.85 1011 10 16 0.00 0.00
7:53 am 07:53 Sunny 77 25 54 12.2 45 45 SSE 10 17 29.87 1012 10 16 0.00 0.00
8:53 am 08:53 Sunny 81 27.2 58 14.4 45 45 S 15 24 29.88 1012 10 16 0.00 0.00
9:53 am 09:53 Sunny 85 29.4 57 13.9 39 39 S 17 28 29.88 1012 10 16 0.00 0.00
10:53 am 10:53 Sunny 89 31.7 55 12.8 31 31 S 20 31 29.88 1012 10 16 0.00 0.00
11:53 am 11:53 Sunny 92 33.3 53 11.7 27 27 S 16 26 29.88 1012 10 16 0.00 0.00
12:53 pm 12:53 Sunny 94 34.4 49 9.4 21 21 S 13 20 29.88 1012 10 16 0.00 0.00
1:53 pm 13:53 Sunny 96 35.6 48 8.9 19 19 S 18 30 29.86 1011 10 16 0.00 0.00
2:53 pm 14:53 Sunny 97 36.1 47 8.3 18 18 SSE 8 13 29.84 1011 10 16 0.00 0.00
3:53 pm 15:53 Sunny 99 37.2 45 7.2 16 16 SSW 13 20 29.83 1010 10 16 0.00 0.00
4:53 pm 16:53 Sunny 98 36.7 43 6.1 15 15 SSE 13 20 29.82 1010 10 16 0.00 0.00
5:53 pm 17:53 Sunny 98 36.7 39 3.9 13 13 SE 10 17 29.80 1009 10 16 0.00 0.00
6:53 pm 18:53 Sunny 98 36.7 41 5 14 14 SE 16 26 29.80 1009 10 16 0.00 0.00
7:53 pm 19:53 Sunny 96 35.6 39 3.9 14 14 SE 13 20 29.81 1010 10 16 0.00 0.00
8:53 pm 20:53 Sunny 93 33.9 40 4.4 16 16 SE 14 22 29.84 1011 10 16 0.00 0.00
9:53 pm 21:53 Clear 89 31.7 40 4.4 18 18 SE 7 11 29.87 1011 10 16 0.00 0.00
10:53 pm 22:53 Clear 86 30 40 4.4 20 20 SE 8 13 29.90 1012 10 16 0.00 0.00
11:53 pm 23:53 Clear 87 30.6 40 4.4 19 19 S 8 13 29.91 1013 10 16 0.00 0.00

Powered by AerisWeather